contact:dominique.lefevre@mio.osupytheas.fr, maurice.libes@osupytheas.fr, didier.mallarino@osupytheas.fr
Project:EMSO http://www.emso-fr.org/EMSO-France
Depth: 2436.0 m
Title:EMSO Ligure Ouest : Data MII capteur MICROCAT
DateTime_Computer,Latitude,Longitude,Temperature,Conductivity,Pressure,DateTime_Instrument
DateTime_Computer,Latitude,Longitude,degC,S m-1,dbar,DateTime_Instrument
2024-03-30T00:02:42Z,42.805,6.029,13.3039,4.60129,2470.964,2024-3-30T02:05:21Z
2024-03-30T00:05:45Z,42.805,6.029,13.3042,4.60128,2470.964,2024-3-30T02:08:24Z
2024-03-30T00:08:48Z,42.805,6.029,13.3037,4.60129,2470.95,2024-3-30T02:11:27Z
2024-03-30T00:11:51Z,42.805,6.029,13.3042,4.60128,2470.964,2024-3-30T02:14:30Z
2024-03-30T00:14:54Z,42.805,6.029,13.3043,4.60129,2470.94,2024-3-30T02:17:33Z
2024-03-30T00:17:57Z,42.805,6.029,13.3039,4.60129,2470.936,2024-3-30T02:20:36Z
2024-03-30T00:21:01Z,42.805,6.029,13.3043,4.60128,2470.927,2024-3-30T02:23:39Z
2024-03-30T00:24:04Z,42.805,6.029,13.3043,4.60128,2470.904,2024-3-30T02:26:42Z
2024-03-30T00:27:07Z,42.805,6.029,13.3041,4.60127,2470.94,2024-3-30T02:29:45Z
2024-03-30T00:30:10Z,42.805,6.029,13.3040,4.60128,2470.94,2024-3-30T02:32:49Z
2024-03-30T00:33:13Z,42.805,6.029,13.3043,4.60127,2470.927,2024-3-30T02:35:52Z
2024-03-30T00:36:16Z,42.805,6.029,13.3041,4.60134,2470.94,2024-3-30T02:38:55Z
2024-03-30T00:39:19Z,42.805,6.029,13.3042,4.60127,2470.927,2024-3-30T02:41:58Z
2024-03-30T00:42:22Z,42.805,6.029,13.3041,4.60129,2470.94,2024-3-30T02:45:01Z
2024-03-30T00:45:25Z,42.805,6.029,13.3039,4.60128,2470.927,2024-3-30T02:48:04Z
2024-03-30T00:48:28Z,42.805,6.029,13.3042,4.60127,2470.904,2024-3-30T02:51:07Z
2024-03-30T00:51:31Z,42.805,6.029,13.3041,4.60128,2470.927,2024-3-30T02:54:10Z
2024-03-30T00:54:34Z,42.805,6.029,13.3042,4.60127,2470.913,2024-3-30T02:57:13Z
2024-03-30T00:57:38Z,42.805,6.029,13.3039,4.60128,2470.95,2024-3-30T03:00:16Z
2024-03-30T01:00:41Z,42.805,6.029,13.3044,4.60127,2470.927,2024-3-30T03:03:19Z
2024-03-30T01:03:44Z,42.805,6.029,13.3040,4.60127,2470.894,2024-3-30T03:06:22Z
2024-03-30T01:06:47Z,42.805,6.029,13.3041,4.60127,2470.88,2024-3-30T03:09:26Z
2024-03-30T01:09:50Z,42.805,6.029,13.3045,4.60127,2470.927,2024-3-30T03:12:29Z
2024-03-30T01:12:53Z,42.805,6.029,13.3040,4.60127,2470.927,2024-3-30T03:15:32Z
2024-03-30T01:15:56Z,42.805,6.029,13.3041,4.60128,2470.904,2024-3-30T03:18:35Z
2024-03-30T01:18:59Z,42.805,6.029,13.3040,4.60128,2470.904,2024-3-30T03:21:38Z
2024-03-30T01:22:02Z,42.805,6.029,13.3040,4.60127,2470.94,2024-3-30T03:24:41Z
2024-03-30T01:25:05Z,42.805,6.029,13.3041,4.60127,2470.904,2024-3-30T03:27:44Z
2024-03-30T01:28:08Z,42.805,6.029,13.3042,4.60127,2470.94,2024-3-30T03:30:47Z
2024-03-30T01:31:11Z,42.805,6.029,13.3039,4.60127,2470.94,2024-3-30T03:33:50Z
2024-03-30T01:34:15Z,42.805,6.029,13.3043,4.60127,2470.894,2024-3-30T03:36:53Z
2024-03-30T01:37:18Z,42.805,6.029,13.3041,4.60127,2470.927,2024-3-30T03:39:56Z
2024-03-30T01:40:21Z,42.805,6.029,13.3041,4.60127,2470.927,2024-3-30T03:42:59Z
2024-03-30T01:43:24Z,42.805,6.029,13.3044,4.60127,2470.927,2024-3-30T03:46:02Z
2024-03-30T01:46:27Z,42.805,6.029,13.3043,4.60129,2470.927,2024-3-30T03:49:06Z
2024-03-30T01:49:30Z,42.805,6.029,13.3041,4.60127,2470.917,2024-3-30T03:52:09Z
2024-03-30T01:52:33Z,42.805,6.029,13.3039,4.60129,2470.94,2024-3-30T03:55:12Z
2024-03-30T01:55:36Z,42.805,6.029,13.3043,4.60127,2470.917,2024-3-30T03:58:15Z
2024-03-30T01:58:39Z,42.805,6.029,13.3039,4.60127,2470.904,2024-3-30T04:01:18Z
2024-03-30T02:01:42Z,42.805,6.029,13.3042,4.60128,2470.917,2024-3-30T04:04:21Z
2024-03-30T02:04:45Z,42.805,6.029,13.3043,4.60127,2470.88,2024-3-30T04:07:24Z
2024-03-30T02:07:48Z,42.805,6.029,13.3043,4.60127,2470.94,2024-3-30T04:10:27Z
2024-03-30T02:10:52Z,42.805,6.029,13.3042,4.60127,2470.904,2024-3-30T04:13:30Z
2024-03-30T02:13:55Z,42.805,6.029,13.3041,4.60128,2470.94,2024-3-30T04:16:33Z
2024-03-30T02:16:58Z,42.805,6.029,13.3041,4.60127,2470.88,2024-3-30T04:19:36Z
2024-03-30T02:20:01Z,42.805,6.029,13.3041,4.60127,2470.871,2024-3-30T04:22:39Z
2024-03-30T02:23:04Z,42.805,6.029,13.3042,4.60129,2470.88,2024-3-30T04:25:43Z
2024-03-30T02:26:07Z,42.805,6.029,13.3040,4.60128,2470.904,2024-3-30T04:28:46Z
2024-03-30T02:29:10Z,42.805,6.029,13.3039,4.60128,2470.904,2024-3-30T04:31:49Z
2024-03-30T02:32:13Z,42.805,6.029,13.3040,4.60128,2470.894,2024-3-30T04:34:52Z
2024-03-30T02:35:16Z,42.805,6.029,13.3042,4.60127,2470.88,2024-3-30T04:37:55Z
2024-03-30T02:38:19Z,42.805,6.029,13.3041,4.60127,2470.904,2024-3-30T04:40:58Z
2024-03-30T02:41:22Z,42.805,6.029,13.3040,4.60127,2470.871,2024-3-30T04:44:01Z
2024-03-30T02:44:25Z,42.805,6.029,13.3043,4.60129,2470.857,2024-3-30T04:47:04Z
2024-03-30T02:47:28Z,42.805,6.029,13.3041,4.60127,2470.88,2024-3-30T04:50:07Z
2024-03-30T02:50:32Z,42.805,6.029,13.3041,4.60127,2470.88,2024-3-30T04:53:10Z
2024-03-30T02:53:35Z,42.805,6.029,13.3038,4.60127,2470.917,2024-3-30T04:56:13Z
2024-03-30T02:56:38Z,42.805,6.029,13.3039,4.60127,2470.894,2024-3-30T04:59:16Z
2024-03-30T02:59:41Z,42.805,6.029,13.3041,4.60127,2470.871,2024-3-30T05:02:20Z
2024-03-30T03:02:44Z,42.805,6.029,13.3038,4.60127,2470.871,2024-3-30T05:05:23Z
2024-03-30T03:05:47Z,42.805,6.029,13.3046,4.60128,2470.88,2024-3-30T05:08:26Z
2024-03-30T03:08:50Z,42.805,6.029,13.3046,4.60127,2470.904,2024-3-30T05:11:29Z
2024-03-30T03:11:53Z,42.805,6.029,13.3045,4.60127,2470.857,2024-3-30T05:14:32Z
2024-03-30T03:14:56Z,42.805,6.029,13.3038,4.60127,2470.857,2024-3-30T05:17:35Z
2024-03-30T03:17:59Z,42.805,6.029,13.3042,4.60127,2470.894,2024-3-30T05:20:38Z
2024-03-30T03:21:02Z,42.805,6.029,13.3039,4.60128,2470.88,2024-3-30T05:23:41Z
2024-03-30T03:24:05Z,42.805,6.029,13.3042,4.60128,2470.857,2024-3-30T05:26:44Z
2024-03-30T03:27:09Z,42.805,6.029,13.3040,4.60127,2470.833,2024-3-30T05:29:47Z
2024-03-30T03:30:12Z,42.805,6.029,13.3044,4.60127,2470.894,2024-3-30T05:32:50Z
2024-03-30T03:33:15Z,42.805,6.029,13.3039,4.60127,2470.871,2024-3-30T05:35:53Z
2024-03-30T03:36:18Z,42.805,6.029,13.3039,4.60127,2470.833,2024-3-30T05:38:57Z
2024-03-30T03:39:21Z,42.805,6.029,13.3043,4.60127,2470.833,2024-3-30T05:42:00Z
2024-03-30T03:42:24Z,42.805,6.029,13.3040,4.60128,2470.833,2024-3-30T05:45:03Z
2024-03-30T03:45:27Z,42.805,6.029,13.3039,4.60127,2470.871,2024-3-30T05:48:06Z
2024-03-30T03:48:30Z,42.805,6.029,13.3040,4.60127,2470.88,2024-3-30T05:51:09Z
2024-03-30T03:51:33Z,42.805,6.029,13.3039,4.60127,2470.88,2024-3-30T05:54:12Z
2024-03-30T03:54:36Z,42.805,6.029,13.3041,4.60127,2470.857,2024-3-30T05:57:15Z
2024-03-30T03:57:39Z,42.805,6.029,13.3037,4.60127,2470.833,2024-3-30T06:00:18Z
2024-03-30T04:00:42Z,42.805,6.029,13.3039,4.60127,2470.857,2024-3-30T06:03:21Z
2024-03-30T04:03:45Z,42.805,6.029,13.3039,4.60128,2470.833,2024-3-30T06:06:24Z
2024-03-30T04:06:49Z,42.805,6.029,13.3041,4.60128,2470.871,2024-3-30T06:09:27Z
2024-03-30T04:09:52Z,42.805,6.029,13.3042,4.60127,2470.88,2024-3-30T06:12:30Z
2024-03-30T04:12:55Z,42.805,6.029,13.3039,4.60127,2470.857,2024-3-30T06:15:33Z
2024-03-30T04:15:58Z,42.805,6.029,13.3043,4.60127,2470.866,2024-3-30T06:18:37Z
2024-03-30T04:19:01Z,42.805,6.029,13.3039,4.60127,2470.857,2024-3-30T06:21:40Z
2024-03-30T04:22:04Z,42.805,6.029,13.3039,4.60127,2470.88,2024-3-30T06:24:43Z
2024-03-30T04:25:07Z,42.805,6.029,13.3039,4.60128,2470.871,2024-3-30T06:27:46Z
2024-03-30T04:28:10Z,42.805,6.029,13.3043,4.60127,2470.88,2024-3-30T06:30:49Z
2024-03-30T04:31:13Z,42.805,6.029,13.3040,4.60127,2470.88,2024-3-30T06:33:52Z
2024-03-30T04:34:16Z,42.805,6.029,13.3040,4.60129,2470.857,2024-3-30T06:36:55Z
2024-03-30T04:37:19Z,42.805,6.029,13.3037,4.60127,2470.857,2024-3-30T06:39:58Z
2024-03-30T04:40:22Z,42.805,6.029,13.3037,4.60127,2470.857,2024-3-30T06:43:01Z
2024-03-30T04:43:26Z,42.805,6.029,13.3043,4.60128,2470.88,2024-3-30T06:46:04Z
2024-03-30T04:46:29Z,42.805,6.029,13.3042,4.60128,2470.857,2024-3-30T06:49:07Z
2024-03-30T04:49:32Z,42.805,6.029,13.3042,4.60127,2470.847,2024-3-30T06:52:10Z
2024-03-30T04:52:35Z,42.805,6.029,13.3041,4.60128,2470.857,2024-3-30T06:55:14Z
2024-03-30T04:55:38Z,42.805,6.029,13.3042,4.60127,2470.88,2024-3-30T06:58:17Z
2024-03-30T04:58:41Z,42.805,6.029,13.3039,4.60127,2470.917,2024-3-30T07:01:20Z
2024-03-30T05:01:44Z,42.805,6.029,13.3041,4.60127,2470.857,2024-3-30T07:04:23Z
2024-03-30T05:04:47Z,42.805,6.029,13.3042,4.60128,2470.917,2024-3-30T07:07:26Z
2024-03-30T05:07:50Z,42.805,6.029,13.3041,4.60127,2470.88,2024-3-30T07:10:29Z
2024-03-30T05:10:53Z,42.805,6.029,13.3041,4.60127,2470.894,2024-3-30T07:13:32Z
2024-03-30T05:13:56Z,42.805,6.029,13.3039,4.60127,2470.894,2024-3-30T07:16:35Z
2024-03-30T05:16:59Z,42.805,6.029,13.3042,4.60127,2470.904,2024-3-30T07:19:38Z
2024-03-30T05:20:03Z,42.805,6.029,13.3043,4.60127,2470.88,2024-3-30T07:22:41Z
2024-03-30T05:23:06Z,42.805,6.029,13.3043,4.60127,2470.857,2024-3-30T07:25:44Z
2024-03-30T05:26:09Z,42.805,6.029,13.3042,4.60127,2470.88,2024-3-30T07:28:47Z
2024-03-30T05:29:12Z,42.805,6.029,13.3041,4.60127,2470.88,2024-3-30T07:31:51Z
2024-03-30T05:32:15Z,42.805,6.029,13.3043,4.60129,2470.857,2024-3-30T07:34:54Z
2024-03-30T05:35:18Z,42.805,6.029,13.3042,4.60128,2470.88,2024-3-30T07:37:57Z
2024-03-30T05:38:21Z,42.805,6.029,13.3036,4.60128,2470.904,2024-3-30T07:41:00Z
2024-03-30T05:41:24Z,42.805,6.029,13.3041,4.60127,2470.88,2024-3-30T07:44:03Z
2024-03-30T05:44:27Z,42.805,6.029,13.3039,4.60129,2470.88,2024-3-30T07:47:06Z
2024-03-30T05:47:30Z,42.805,6.029,13.3039,4.60127,2470.894,2024-3-30T07:50:09Z
2024-03-30T05:50:33Z,42.805,6.029,13.3041,4.60127,2470.894,2024-3-30T07:53:12Z
2024-03-30T05:53:36Z,42.805,6.029,13.3041,4.60127,2470.904,2024-3-30T07:56:15Z
2024-03-30T05:56:40Z,42.805,6.029,13.3045,4.60127,2470.917,2024-3-30T07:59:18Z
2024-03-30T05:59:43Z,42.805,6.029,13.3043,4.60128,2470.871,2024-3-30T08:02:21Z
2024-03-30T06:02:46Z,42.805,6.029,13.3041,4.60127,2470.904,2024-3-30T08:05:24Z
2024-03-30T06:05:49Z,42.805,6.029,13.3039,4.60127,2470.904,2024-3-30T08:08:27Z
2024-03-30T06:08:52Z,42.805,6.029,13.3042,4.60127,2470.904,2024-3-30T08:11:31Z
2024-03-30T06:11:55Z,42.805,6.029,13.3043,4.60127,2470.94,2024-3-30T08:14:34Z
2024-03-30T06:14:58Z,42.805,6.029,13.3042,4.60127,2470.904,2024-3-30T08:17:37Z
2024-03-30T06:18:01Z,42.805,6.029,13.3041,4.60129,2470.927,2024-3-30T08:20:40Z
2024-03-30T06:21:04Z,42.805,6.029,13.3042,4.60128,2470.904,2024-3-30T08:23:43Z
2024-03-30T06:24:07Z,42.805,6.029,13.3042,4.60128,2470.904,2024-3-30T08:26:46Z
2024-03-30T06:27:10Z,42.805,6.029,13.3041,4.60129,2470.904,2024-3-30T08:29:49Z
2024-03-30T06:30:13Z,42.805,6.029,13.3046,4.60127,2470.904,2024-3-30T08:32:52Z
2024-03-30T06:33:16Z,42.805,6.029,13.3040,4.60128,2470.927,2024-3-30T08:35:55Z
2024-03-30T06:36:20Z,42.805,6.029,13.3037,4.60127,2470.94,2024-3-30T08:38:58Z
2024-03-30T06:39:23Z,42.805,6.029,13.3041,4.60129,2470.917,2024-3-30T08:42:01Z
2024-03-30T06:42:26Z,42.805,6.029,13.3042,4.60129,2470.917,2024-3-30T08:45:04Z
2024-03-30T06:45:29Z,42.805,6.029,13.3041,4.60128,2470.917,2024-3-30T08:48:08Z
2024-03-30T06:48:32Z,42.805,6.029,13.3042,4.60129,2470.904,2024-3-30T08:51:11Z
2024-03-30T06:51:35Z,42.805,6.029,13.3040,4.60127,2470.927,2024-3-30T08:54:14Z
2024-03-30T06:54:38Z,42.805,6.029,13.3040,4.60127,2470.927,2024-3-30T08:57:17Z
2024-03-30T06:57:41Z,42.805,6.029,13.3039,4.60128,2470.904,2024-3-30T09:00:20Z
2024-03-30T07:00:44Z,42.805,6.029,13.3041,4.60129,2470.904,2024-3-30T09:03:23Z
2024-03-30T07:03:47Z,42.805,6.029,13.3041,4.60130,2470.927,2024-3-30T09:06:26Z
2024-03-30T07:06:50Z,42.805,6.029,13.3041,4.60129,2470.927,2024-3-30T09:09:29Z
2024-03-30T07:09:53Z,42.805,6.029,13.3037,4.60129,2470.95,2024-3-30T09:12:32Z
2024-03-30T07:12:56Z,42.805,6.029,13.3042,4.60129,2470.964,2024-3-30T09:15:35Z
2024-03-30T07:16:00Z,42.805,6.029,13.3043,4.60128,2470.964,2024-3-30T09:18:38Z
2024-03-30T07:19:03Z,42.805,6.029,13.3043,4.60130,2470.987,2024-3-30T09:21:41Z
2024-03-30T07:22:06Z,42.805,6.029,13.3041,4.60128,2470.95,2024-3-30T09:24:44Z
2024-03-30T07:25:09Z,42.805,6.029,13.3039,4.60130,2470.95,2024-3-30T09:27:48Z
2024-03-30T07:28:12Z,42.805,6.029,13.3043,4.60129,2470.95,2024-3-30T09:30:51Z
2024-03-30T07:31:15Z,42.805,6.029,13.3043,4.60129,2470.94,2024-3-30T09:33:54Z
2024-03-30T07:34:18Z,42.805,6.029,13.3043,4.60128,2470.964,2024-3-30T09:36:57Z
2024-03-30T07:37:21Z,42.805,6.029,13.3042,4.60128,2470.94,2024-3-30T09:40:00Z
2024-03-30T07:40:24Z,42.805,6.029,13.3040,4.60130,2470.927,2024-3-30T09:43:03Z
2024-03-30T07:43:27Z,42.805,6.029,13.3041,4.60129,2470.964,2024-3-30T09:46:06Z
2024-03-30T07:46:30Z,42.805,6.029,13.3043,4.60129,2470.973,2024-3-30T09:49:09Z
2024-03-30T07:49:33Z,42.805,6.029,13.3041,4.60129,2470.964,2024-3-30T09:52:12Z
2024-03-30T07:52:37Z,42.805,6.029,13.3041,4.60130,2470.95,2024-3-30T09:55:15Z
2024-03-30T07:55:40Z,42.805,6.029,13.3041,4.60129,2470.973,2024-3-30T09:58:18Z
2024-03-30T07:58:43Z,42.805,6.029,13.3040,4.60130,2470.997,2024-3-30T10:01:21Z
2024-03-30T08:01:46Z,42.805,6.029,13.3046,4.60130,2470.987,2024-3-30T10:04:25Z
2024-03-30T08:04:49Z,42.805,6.029,13.3046,4.60129,2471.01,2024-3-30T10:07:28Z
2024-03-30T08:07:52Z,42.805,6.029,13.3041,4.60128,2470.997,2024-3-30T10:10:31Z
2024-03-30T08:10:55Z,42.805,6.029,13.3041,4.60129,2470.973,2024-3-30T10:13:34Z
2024-03-30T08:13:58Z,42.805,6.029,13.3045,4.60129,2470.987,2024-3-30T10:16:37Z
2024-03-30T08:17:01Z,42.805,6.029,13.3039,4.60130,2470.973,2024-3-30T10:19:40Z
2024-03-30T08:20:04Z,42.805,6.029,13.3039,4.60131,2470.987,2024-3-30T10:22:43Z
2024-03-30T08:23:07Z,42.805,6.029,13.3046,4.60129,2471.02,2024-3-30T10:25:46Z
2024-03-30T08:26:10Z,42.805,6.029,13.3041,4.60129,2470.973,2024-3-30T10:28:49Z
2024-03-30T08:29:14Z,42.805,6.029,13.3044,4.60128,2470.973,2024-3-30T10:31:52Z
2024-03-30T08:32:17Z,42.805,6.029,13.3046,4.60129,2470.997,2024-3-30T10:34:55Z
2024-03-30T08:35:20Z,42.805,6.029,13.3039,4.60129,2470.973,2024-3-30T10:37:58Z
2024-03-30T08:38:23Z,42.805,6.029,13.3044,4.60129,2470.997,2024-3-30T10:41:02Z
2024-03-30T08:41:26Z,42.805,6.029,13.3043,4.60132,2470.987,2024-3-30T10:44:05Z
2024-03-30T08:44:29Z,42.805,6.029,13.3042,4.60130,2470.997,2024-3-30T10:47:08Z
2024-03-30T08:47:32Z,42.805,6.029,13.3043,4.60130,2470.987,2024-3-30T10:50:11Z
2024-03-30T08:50:35Z,42.805,6.029,13.3042,4.60131,2470.997,2024-3-30T10:53:14Z
2024-03-30T08:53:38Z,42.805,6.029,13.3043,4.60130,2471.01,2024-3-30T10:56:17Z
2024-03-30T08:56:41Z,42.805,6.029,13.3041,4.60130,2471.02,2024-3-30T10:59:20Z
2024-03-30T08:59:44Z,42.805,6.029,13.3041,4.60130,2470.973,2024-3-30T11:02:23Z
2024-03-30T09:02:47Z,42.805,6.029,13.3044,4.60129,2470.997,2024-3-30T11:05:26Z
2024-03-30T09:05:51Z,42.805,6.029,13.3041,4.60130,2470.997,2024-3-30T11:08:29Z
2024-03-30T09:08:54Z,42.805,6.029,13.3043,4.60129,2470.997,2024-3-30T11:11:32Z
2024-03-30T09:11:57Z,42.805,6.029,13.3041,4.60130,2470.987,2024-3-30T11:14:35Z
2024-03-30T09:15:00Z,42.805,6.029,13.3044,4.60130,2471.02,2024-3-30T11:17:39Z
2024-03-30T09:18:03Z,42.805,6.029,13.3043,4.60130,2471.01,2024-3-30T11:20:42Z
2024-03-30T09:21:06Z,42.805,6.029,13.3041,4.60130,2470.997,2024-3-30T11:23:45Z
2024-03-30T09:24:09Z,42.805,6.029,13.3041,4.60131,2470.973,2024-3-30T11:26:48Z
2024-03-30T09:27:12Z,42.805,6.029,13.3042,4.60130,2471.02,2024-3-30T11:29:51Z
2024-03-30T09:30:15Z,42.805,6.029,13.3041,4.60130,2470.997,2024-3-30T11:32:54Z
2024-03-30T09:33:18Z,42.805,6.029,13.3039,4.60132,2471.01,2024-3-30T11:35:57Z
2024-03-30T09:36:21Z,42.805,6.029,13.3045,4.60130,2471.01,2024-3-30T11:39:00Z
2024-03-30T09:39:25Z,42.805,6.029,13.3041,4.60129,2470.987,2024-3-30T11:42:03Z
2024-03-30T09:42:28Z,42.805,6.029,13.3043,4.60130,2470.997,2024-3-30T11:45:06Z
2024-03-30T09:45:31Z,42.805,6.029,13.3042,4.60129,2471.01,2024-3-30T11:48:09Z
2024-03-30T09:48:34Z,42.805,6.029,13.3041,4.60129,2470.997,2024-3-30T11:51:12Z
2024-03-30T09:51:37Z,42.805,6.029,13.3039,4.60129,2470.997,2024-3-30T11:54:16Z
2024-03-30T09:54:40Z,42.805,6.029,13.3044,4.60134,2470.997,2024-3-30T11:57:19Z
2024-03-30T09:57:43Z,42.805,6.029,13.3040,4.60132,2470.987,2024-3-30T12:00:22Z
2024-03-30T10:00:46Z,42.805,6.029,13.3043,4.60130,2471.02,2024-3-30T12:03:25Z
2024-03-30T10:03:49Z,42.805,6.029,13.3044,4.60132,2470.973,2024-3-30T12:06:28Z
2024-03-30T10:06:52Z,42.805,6.029,13.3043,4.60130,2470.973,2024-3-30T12:09:31Z
2024-03-30T10:09:55Z,42.805,6.029,13.3045,4.60130,2471.034,2024-3-30T12:12:34Z
2024-03-30T10:12:58Z,42.805,6.029,13.3043,4.60130,2470.997,2024-3-30T12:15:37Z
2024-03-30T10:16:02Z,42.805,6.029,13.3043,4.60129,2471.01,2024-3-30T12:18:40Z
2024-03-30T10:19:05Z,42.805,6.029,13.3041,4.60130,2470.997,2024-3-30T12:21:43Z
2024-03-30T10:22:08Z,42.805,6.029,13.3043,4.60129,2470.973,2024-3-30T12:24:46Z
2024-03-30T10:25:11Z,42.805,6.029,13.3043,4.60130,2470.973,2024-3-30T12:27:50Z
2024-03-30T10:28:14Z,42.805,6.029,13.3039,4.60130,2471.02,2024-3-30T12:30:53Z
2024-03-30T10:31:17Z,42.805,6.029,13.3041,4.60131,2470.973,2024-3-30T12:33:56Z
2024-03-30T10:34:20Z,42.805,6.029,13.3040,4.60130,2470.997,2024-3-30T12:36:59Z
2024-03-30T10:37:23Z,42.805,6.029,13.3046,4.60130,2470.987,2024-3-30T12:40:02Z
2024-03-30T10:40:26Z,42.805,6.029,13.3039,4.60131,2470.997,2024-3-30T12:43:05Z
2024-03-30T10:43:29Z,42.805,6.029,13.3045,4.60130,2471.01,2024-3-30T12:46:08Z
2024-03-30T10:46:32Z,42.805,6.029,13.3043,4.60131,2471.01,2024-3-30T12:49:11Z
2024-03-30T10:49:36Z,42.805,6.029,13.3040,4.60130,2470.997,2024-3-30T12:52:14Z
2024-03-30T10:52:39Z,42.805,6.029,13.3039,4.60131,2470.973,2024-3-30T12:55:17Z
2024-03-30T10:55:42Z,42.805,6.029,13.3045,4.60130,2470.997,2024-3-30T12:58:20Z
2024-03-30T10:58:45Z,42.805,6.029,13.3041,4.60132,2470.997,2024-3-30T13:01:23Z
2024-03-30T11:01:48Z,42.805,6.029,13.3043,4.60130,2470.997,2024-3-30T13:04:27Z
2024-03-30T11:04:51Z,42.805,6.029,13.3043,4.60131,2470.987,2024-3-30T13:07:30Z
2024-03-30T11:07:54Z,42.805,6.029,13.3043,4.60129,2470.987,2024-3-30T13:10:33Z
2024-03-30T11:10:57Z,42.805,6.029,13.3043,4.60130,2470.973,2024-3-30T13:13:36Z
2024-03-30T11:14:00Z,42.805,6.029,13.3039,4.60129,2470.997,2024-3-30T13:16:39Z
2024-03-30T11:17:03Z,42.805,6.029,13.3043,4.60130,2470.973,2024-3-30T13:19:42Z
2024-03-30T11:20:06Z,42.805,6.029,13.3043,4.60130,2470.987,2024-3-30T13:22:45Z
2024-03-30T11:23:09Z,42.805,6.029,13.3042,4.60130,2470.997,2024-3-30T13:25:48Z
2024-03-30T11:26:13Z,42.805,6.029,13.3042,4.60131,2470.95,2024-3-30T13:28:51Z
2024-03-30T11:29:16Z,42.805,6.029,13.3044,4.60132,2470.973,2024-3-30T13:31:54Z
2024-03-30T11:32:19Z,42.805,6.029,13.3045,4.60130,2470.973,2024-3-30T13:34:57Z
2024-03-30T11:35:22Z,42.805,6.029,13.3039,4.60131,2471.01,2024-3-30T13:38:01Z
2024-03-30T11:38:25Z,42.805,6.029,13.3040,4.60130,2470.973,2024-3-30T13:41:04Z
2024-03-30T11:41:28Z,42.805,6.029,13.3041,4.60129,2470.997,2024-3-30T13:44:07Z
2024-03-30T11:44:31Z,42.805,6.029,13.3043,4.60130,2470.987,2024-3-30T13:47:10Z
2024-03-30T11:47:34Z,42.805,6.029,13.3041,4.60130,2470.973,2024-3-30T13:50:13Z
2024-03-30T11:50:37Z,42.805,6.029,13.3043,4.60129,2470.997,2024-3-30T13:53:16Z
2024-03-30T11:53:40Z,42.805,6.029,13.3039,4.60130,2470.973,2024-3-30T13:56:19Z
2024-03-30T11:56:43Z,42.805,6.029,13.3042,4.60130,2470.95,2024-3-30T13:59:22Z
2024-03-30T11:59:46Z,42.805,6.029,13.3042,4.60132,2470.973,2024-3-30T14:02:25Z
2024-03-30T12:02:50Z,42.805,6.029,13.3041,4.60130,2470.95,2024-3-30T14:05:28Z
2024-03-30T12:05:53Z,42.805,6.029,13.3043,4.60130,2470.95,2024-3-30T14:08:31Z
2024-03-30T12:08:56Z,42.805,6.029,13.3042,4.60129,2470.927,2024-3-30T14:11:34Z
2024-03-30T12:11:59Z,42.805,6.029,13.3043,4.60130,2470.95,2024-3-30T14:14:38Z
2024-03-30T12:15:02Z,42.805,6.029,13.3043,4.60129,2470.95,2024-3-30T14:17:41Z
2024-03-30T12:18:05Z,42.805,6.029,13.3041,4.60131,2470.95,2024-3-30T14:20:44Z
2024-03-30T12:21:08Z,42.805,6.029,13.3042,4.60131,2470.95,2024-3-30T14:23:47Z
2024-03-30T12:24:11Z,42.805,6.029,13.3041,4.60130,2470.95,2024-3-30T14:26:50Z
2024-03-30T12:27:14Z,42.805,6.029,13.3043,4.60133,2470.95,2024-3-30T14:29:53Z
2024-03-30T12:30:17Z,42.805,6.029,13.3041,4.60130,2470.94,2024-3-30T14:32:56Z
2024-03-30T12:33:20Z,42.805,6.029,13.3046,4.60130,2470.964,2024-3-30T14:35:59Z
2024-03-30T12:36:23Z,42.805,6.029,13.3039,4.60129,2470.954,2024-3-30T14:39:02Z
2024-03-30T12:39:27Z,42.805,6.029,13.3041,4.60130,2470.964,2024-3-30T14:42:05Z
2024-03-30T12:42:30Z,42.805,6.029,13.3041,4.60130,2470.964,2024-3-30T14:45:08Z
2024-03-30T12:45:33Z,42.805,6.029,13.3041,4.60129,2470.904,2024-3-30T14:48:11Z
2024-03-30T12:48:36Z,42.805,6.029,13.3040,4.60130,2470.927,2024-3-30T14:51:15Z
2024-03-30T12:51:39Z,42.805,6.029,13.3041,4.60129,2470.927,2024-3-30T14:54:18Z
2024-03-30T12:54:42Z,42.805,6.029,13.3040,4.60128,2470.904,2024-3-30T14:57:21Z
2024-03-30T12:57:45Z,42.805,6.029,13.3046,4.60130,2470.927,2024-3-30T15:00:24Z
2024-03-30T13:00:48Z,42.805,6.029,13.3041,4.60129,2470.88,2024-3-30T15:03:27Z
2024-03-30T13:03:51Z,42.805,6.029,13.3044,4.60129,2470.927,2024-3-30T15:06:30Z
2024-03-30T13:06:54Z,42.805,6.029,13.3041,4.60130,2470.904,2024-3-30T15:09:33Z
2024-03-30T13:09:57Z,42.805,6.029,13.3041,4.60129,2470.894,2024-3-30T15:12:36Z
2024-03-30T13:13:01Z,42.805,6.029,13.3043,4.60129,2470.88,2024-3-30T15:15:39Z
2024-03-30T13:16:04Z,42.805,6.029,13.3040,4.60129,2470.904,2024-3-30T15:18:42Z
2024-03-30T13:19:07Z,42.805,6.029,13.3041,4.60129,2470.94,2024-3-30T15:21:45Z
2024-03-30T13:22:10Z,42.805,6.029,13.3043,4.60129,2470.894,2024-3-30T15:24:48Z
2024-03-30T13:25:13Z,42.805,6.029,13.3046,4.60129,2470.917,2024-3-30T15:27:52Z
2024-03-30T13:28:16Z,42.805,6.029,13.3040,4.60130,2470.89,2024-3-30T15:30:55Z
2024-03-30T13:31:19Z,42.805,6.029,13.3039,4.60129,2470.88,2024-3-30T15:33:58Z
2024-03-30T13:34:22Z,42.805,6.029,13.3041,4.60128,2470.88,2024-3-30T15:37:01Z
2024-03-30T13:37:25Z,42.805,6.029,13.3041,4.60129,2470.904,2024-3-30T15:40:04Z
2024-03-30T13:40:28Z,42.805,6.029,13.3042,4.60130,2470.904,2024-3-30T15:43:07Z
2024-03-30T13:43:31Z,42.805,6.029,13.3046,4.60129,2470.894,2024-3-30T15:46:10Z
2024-03-30T13:46:34Z,42.805,6.029,13.3040,4.60129,2470.88,2024-3-30T15:49:13Z
2024-03-30T13:49:38Z,42.805,6.029,13.3043,4.60128,2470.88,2024-3-30T15:52:16Z
2024-03-30T13:52:41Z,42.805,6.029,13.3041,4.60128,2470.857,2024-3-30T15:55:19Z
2024-03-30T13:55:44Z,42.805,6.029,13.3043,4.60130,2470.833,2024-3-30T15:58:22Z
2024-03-30T13:58:47Z,42.805,6.029,13.3040,4.60129,2470.88,2024-3-30T16:01:26Z
2024-03-30T14:01:50Z,42.805,6.029,13.3042,4.60129,2470.857,2024-3-30T16:04:29Z
2024-03-30T14:04:53Z,42.805,6.029,13.3041,4.60128,2470.917,2024-3-30T16:07:32Z
2024-03-30T14:07:56Z,42.805,6.029,13.3041,4.60129,2470.894,2024-3-30T16:10:35Z
2024-03-30T14:10:59Z,42.805,6.029,13.3042,4.60128,2470.857,2024-3-30T16:13:38Z
2024-03-30T14:14:02Z,42.805,6.029,13.3041,4.60129,2470.894,2024-3-30T16:16:41Z
2024-03-30T14:17:05Z,42.805,6.029,13.3040,4.60128,2470.88,2024-3-30T16:19:44Z
2024-03-30T14:20:08Z,42.805,6.029,13.3041,4.60129,2470.857,2024-3-30T16:22:47Z
2024-03-30T14:23:11Z,42.805,6.029,13.3041,4.60128,2470.857,2024-3-30T16:25:50Z
2024-03-30T14:26:15Z,42.805,6.029,13.3041,4.60129,2470.904,2024-3-30T16:28:53Z
2024-03-30T14:29:18Z,42.805,6.029,13.3042,4.60128,2470.847,2024-3-30T16:31:56Z
2024-03-30T14:32:21Z,42.805,6.029,13.3040,4.60128,2470.88,2024-3-30T16:35:00Z
2024-03-30T14:35:24Z,42.805,6.029,13.3041,4.60127,2470.833,2024-3-30T16:38:03Z
2024-03-30T14:38:27Z,42.805,6.029,13.3042,4.60128,2470.871,2024-3-30T16:41:06Z
2024-03-30T14:41:30Z,42.805,6.029,13.3041,4.60128,2470.88,2024-3-30T16:44:09Z
2024-03-30T14:44:33Z,42.805,6.029,13.3040,4.60129,2470.871,2024-3-30T16:47:12Z
2024-03-30T14:47:36Z,42.805,6.029,13.3043,4.60129,2470.894,2024-3-30T16:50:15Z
2024-03-30T14:50:39Z,42.805,6.029,13.3043,4.60129,2470.871,2024-3-30T16:53:18Z
2024-03-30T14:53:42Z,42.805,6.029,13.3043,4.60129,2470.857,2024-3-30T16:56:21Z
2024-03-30T14:56:45Z,42.805,6.029,13.3040,4.60129,2470.894,2024-3-30T16:59:24Z
2024-03-30T14:59:48Z,42.805,6.029,13.3042,4.60131,2470.824,2024-3-30T17:02:27Z
2024-03-30T15:02:52Z,42.805,6.029,13.3039,4.60129,2470.847,2024-3-30T17:05:30Z
2024-03-30T15:05:55Z,42.805,6.029,13.3041,4.60129,2470.857,2024-3-30T17:08:33Z
2024-03-30T15:08:58Z,42.805,6.029,13.3043,4.60129,2470.88,2024-3-30T17:11:37Z
2024-03-30T15:12:01Z,42.805,6.029,13.3044,4.60128,2470.833,2024-3-30T17:14:40Z
2024-03-30T15:15:04Z,42.805,6.029,13.3041,4.60130,2470.833,2024-3-30T17:17:43Z